Time,TemperatureF,DewpointF,PressureIn,WindDirection,WindDirectionDegrees,WindSpeedMPH,WindSpeedGustMPH,Humidity,HourlyPrecipIn,Conditions,Clouds,dailyrainin,SoftwareType,DateUTC
2013-11-13 00:01:00,52.2,39.5,30.30,East,90,0.0,1.6,62,0.00,,,0.00,WUHU216HW,2013-11-13 08:01:00,
2013-11-13 00:06:00,52.2,39.5,30.30,East,90,0.0,0.9,62,0.00,,,0.00,WUHU216HW,2013-11-13 08:06:00,
2013-11-13 00:11:00,51.8,39.2,30.30,East,90,0.0,0.0,62,0.00,,,0.00,WUHU216HW,2013-11-13 08:11:00,
2013-11-13 00:16:00,51.7,39.0,30.30,ENE,68,0.0,0.0,62,0.00,,,0.00,WUHU216HW,2013-11-13 08:16:00,
2013-11-13 00:21:00,51.5,38.9,30.30,ENE,68,0.0,0.0,62,0.00,,,0.00,WUHU216HW,2013-11-13 08:21:00,
2013-11-13 00:26:00,51.5,39.2,30.30,ENE,68,0.0,0.0,63,0.00,,,0.00,WUHU216HW,2013-11-13 08:26:00,
2013-11-13 00:31:00,51.3,39.5,30.29,NNE,23,0.2,1.1,64,0.00,,,0.00,WUHU216HW,2013-11-13 08:31:00,
2013-11-13 00:36:00,51.3,39.5,30.29,NE,45,0.0,1.1,64,0.00,,,0.00,WUHU216HW,2013-11-13 08:36:00,
2013-11-13 00:41:00,51.1,39.3,30.29,NE,45,0.0,0.2,64,0.00,,,0.00,WUHU216HW,2013-11-13 08:41:00,
2013-11-13 00:46:00,50.8,39.0,30.29,NE,45,0.0,0.0,64,0.00,,,0.00,WUHU216HW,2013-11-13 08:46:00,
2013-11-13 00:51:00,50.8,39.4,30.29,West,270,1.3,1.3,65,0.00,,,0.00,WUHU216HW,2013-11-13 08:51:00,
2013-11-13 00:56:00,50.6,39.3,30.29,West,270,0.9,1.3,65,0.00,,,0.00,WUHU216HW,2013-11-13 08:56:00,
2013-11-13 01:01:00,50.6,39.3,30.29,West,270,1.1,1.8,65,0.00,,,0.00,WUHU216HW,2013-11-13 09:01:00,
2013-11-13 01:06:00,50.6,39.3,30.28,West,270,0.9,2.0,65,0.00,,,0.00,WUHU216HW,2013-11-13 09:06:00,
2013-11-13 01:11:00,50.4,38.6,30.29,SW,225,1.1,2.0,64,0.00,,,0.00,WUHU216HW,2013-11-13 09:11:00,
2013-11-13 01:16:00,50.0,38.4,30.28,WSW,248,1.6,1.6,64,0.00,,,0.00,WUHU216HW,2013-11-13 09:16:00,
2013-11-13 01:21:00,50.0,37.9,30.28,West,270,1.1,1.8,63,0.00,,,0.00,WUHU216HW,2013-11-13 09:21:00,
2013-11-13 01:26:00,49.9,37.7,30.29,West,270,0.9,1.8,63,0.00,,,0.00,WUHU216HW,2013-11-13 09:26:00,
2013-11-13 01:31:00,49.7,37.5,30.29,WNW,293,0.4,1.3,63,0.00,,,0.00,WUHU216HW,2013-11-13 09:31:00,
2013-11-13 01:36:00,49.5,37.5,30.29,WNW,293,0.4,1.1,63,0.00,,,0.00,WUHU216HW,2013-11-13 09:36:00,
2013-11-13 01:41:00,49.5,37.5,30.29,WNW,293,0.4,0.9,63,0.00,,,0.00,WUHU216HW,2013-11-13 09:41:00,
2013-11-13 01:46:00,49.3,37.6,30.29,NNW,338,0.2,1.1,64,0.00,,,0.00,WUHU216HW,2013-11-13 09:46:00,
2013-11-13 01:51:00,49.3,37.6,30.29,NW,315,0.0,1.1,64,0.00,,,0.00,WUHU216HW,2013-11-13 09:51:00,
2013-11-13 01:56:00,49.3,37.6,30.29,East,90,0.7,0.7,64,0.00,,,0.00,WUHU216HW,2013-11-13 09:56:00,
2013-11-13 02:01:00,49.3,37.6,30.29,East,90,0.0,0.9,64,0.00,,,0.00,WUHU216HW,2013-11-13 10:01:00,
2013-11-13 02:06:00,49.3,37.6,30.28,East,90,0.4,0.9,64,0.00,,,0.00,WUHU216HW,2013-11-13 10:06:00,
2013-11-13 02:11:00,49.1,37.8,30.28,ENE,68,0.4,0.9,65,0.00,,,0.00,WUHU216HW,2013-11-13 10:11:00,
2013-11-13 02:16:00,49.1,37.8,30.28,ENE,68,0.0,0.9,65,0.00,,,0.00,WUHU216HW,2013-11-13 10:16:00,
2013-11-13 02:21:00,49.1,37.8,30.28,ENE,68,0.0,0.7,65,0.00,,,0.00,WUHU216HW,2013-11-13 10:21:00,
2013-11-13 02:26:00,49.0,38.1,30.28,ENE,68,0.0,0.0,66,0.00,,,0.00,WUHU216HW,2013-11-13 10:26:00,
2013-11-13 02:31:00,48.8,37.9,30.29,NW,315,0.0,0.4,66,0.00,,,0.00,WUHU216HW,2013-11-13 10:31:00,
2013-11-13 02:36:00,48.8,37.9,30.28,NW,315,0.0,0.4,66,0.00,,,0.00,WUHU216HW,2013-11-13 10:36:00,
2013-11-13 02:41:00,48.8,37.9,30.28,NW,315,0.0,0.0,66,0.00,,,0.00,WUHU216HW,2013-11-13 10:41:00,
2013-11-13 02:46:00,48.6,38.1,30.28,NW,315,0.0,0.0,67,0.00,,,0.00,WUHU216HW,2013-11-13 10:46:00,
2013-11-13 02:51:00,48.4,37.9,30.28,NW,315,0.0,0.0,67,0.00,,,0.00,WUHU216HW,2013-11-13 10:51:00,
2013-11-13 02:56:00,48.2,37.7,30.28,WNW,293,0.9,0.9,67,0.00,,,0.00,WUHU216HW,2013-11-13 10:56:00,
2013-11-13 03:01:00,48.2,38.2,30.28,WNW,293,0.4,1.1,68,0.00,,,0.00,WUHU216HW,2013-11-13 11:01:00,
2013-11-13 03:06:00,48.2,37.7,30.28,WNW,293,0.0,1.1,67,0.00,,,0.00,WUHU216HW,2013-11-13 11:06:00,
2013-11-13 03:11:00,48.2,37.7,30.27,WNW,293,0.0,0.4,67,0.00,,,0.00,WUHU216HW,2013-11-13 11:11:00,
2013-11-13 03:16:00,48.1,37.6,30.28,WNW,293,0.0,0.0,67,0.00,,,0.00,WUHU216HW,2013-11-13 11:16:00,
2013-11-13 03:21:00,48.1,37.6,30.27,NW,315,0.0,0.0,67,0.00,,,0.00,WUHU216HW,2013-11-13 11:21:00,
2013-11-13 03:26:00,48.1,37.6,30.27,North,0,0.0,0.4,67,0.00,,,0.00,WUHU216HW,2013-11-13 11:26:00,
2013-11-13 03:31:00,47.9,37.5,30.28,North,0,0.0,0.4,67,0.00,,,0.00,WUHU216HW,2013-11-13 11:31:00,
2013-11-13 03:36:00,47.9,37.8,30.28,North,0,0.0,0.4,68,0.00,,,0.00,WUHU216HW,2013-11-13 11:36:00,
2013-11-13 03:41:00,47.9,37.8,30.28,NNE,23,0.0,1.1,68,0.00,,,0.00,WUHU216HW,2013-11-13 11:41:00,
2013-11-13 03:46:00,47.9,37.8,30.28,NNE,23,0.0,1.1,68,0.00,,,0.00,WUHU216HW,2013-11-13 11:46:00,
2013-11-13 03:51:00,47.9,37.8,30.28,NNE,23,0.0,0.0,68,0.00,,,0.00,WUHU216HW,2013-11-13 11:51:00,
2013-11-13 03:56:00,47.9,37.8,30.27,NNE,23,0.4,0.4,68,0.00,,,0.00,WUHU216HW,2013-11-13 11:56:00,
2013-11-13 04:01:00,47.9,37.8,30.27,NNE,23,0.0,0.4,68,0.00,,,0.00,WUHU216HW,2013-11-13 12:01:00,
2013-11-13 04:06:00,47.7,38.0,30.27,NNE,23,0.0,0.4,69,0.00,,,0.00,WUHU216HW,2013-11-13 12:06:00,
2013-11-13 04:11:00,47.7,38.0,30.26,NNE,23,0.4,0.4,69,0.00,,,0.00,WUHU216HW,2013-11-13 12:11:00,
2013-11-13 04:16:00,47.7,38.0,30.26,NNE,23,0.0,0.4,69,0.00,,,0.00,WUHU216HW,2013-11-13 12:16:00,
2013-11-13 04:21:00,47.5,38.3,30.26,NNE,23,0.0,0.4,70,0.00,,,0.00,WUHU216HW,2013-11-13 12:21:00,
2013-11-13 04:26:00,47.5,38.3,30.27,West,270,1.8,1.8,70,0.00,,,0.00,WUHU216HW,2013-11-13 12:26:00,
2013-11-13 04:31:00,47.5,38.6,30.27,West,270,2.5,2.9,71,0.00,,,0.00,WUHU216HW,2013-11-13 12:31:00,
2013-11-13 04:36:00,47.5,38.6,30.27,West,270,0.0,2.9,71,0.00,,,0.00,WUHU216HW,2013-11-13 12:36:00,
2013-11-13 04:41:00,47.3,38.1,30.27,West,270,0.0,2.5,70,0.00,,,0.00,WUHU216HW,2013-11-13 12:41:00,
2013-11-13 04:46:00,47.2,37.9,30.27,West,270,0.0,1.1,70,0.00,,,0.00,WUHU216HW,2013-11-13 12:46:00,
2013-11-13 04:51:00,47.0,37.7,30.27,West,270,0.0,0.0,70,0.00,,,0.00,WUHU216HW,2013-11-13 12:51:00,
2013-11-13 04:56:00,47.0,37.7,30.27,West,270,0.0,0.0,70,0.00,,,0.00,WUHU216HW,2013-11-13 12:56:00,
2013-11-13 05:01:00,46.8,37.6,30.27,West,270,0.4,0.4,70,0.00,,,0.00,WUHU216HW,2013-11-13 13:01:00,
2013-11-13 05:06:00,46.8,37.6,30.27,WNW,293,1.1,1.1,70,0.00,,,0.00,WUHU216HW,2013-11-13 13:06:00,
2013-11-13 05:11:00,46.8,37.6,30.27,WNW,293,0.7,1.1,70,0.00,,,0.00,WUHU216HW,2013-11-13 13:11:00,
2013-11-13 05:16:00,46.6,37.5,30.27,WNW,293,0.4,0.9,70,0.00,,,0.00,WUHU216HW,2013-11-13 13:16:00,
2013-11-13 05:21:00,46.6,37.5,30.27,WNW,293,0.7,0.9,70,0.00,,,0.00,WUHU216HW,2013-11-13 13:21:00,
2013-11-13 05:26:00,46.8,37.6,30.28,WNW,293,0.4,0.9,70,0.00,,,0.00,WUHU216HW,2013-11-13 13:26:00,
2013-11-13 05:31:00,46.6,37.5,30.28,WNW,293,0.0,0.9,70,0.00,,,0.00,WUHU216HW,2013-11-13 13:31:00,
2013-11-13 05:36:00,46.6,37.5,30.27,WNW,293,0.0,0.9,70,0.00,,,0.00,WUHU216HW,2013-11-13 13:36:00,
2013-11-13 05:41:00,46.4,37.6,30.28,West,270,1.3,1.3,71,0.00,,,0.00,WUHU216HW,2013-11-13 13:41:00,
2013-11-13 05:46:00,46.4,37.6,30.27,WSW,248,0.4,1.6,71,0.00,,,0.00,WUHU216HW,2013-11-13 13:46:00,
2013-11-13 05:51:00,46.4,37.6,30.27,WSW,248,0.0,1.6,71,0.00,,,0.00,WUHU216HW,2013-11-13 13:51:00,
2013-11-13 05:56:00,46.3,37.1,30.27,NNW,338,0.0,0.4,70,0.00,,,0.00,WUHU216HW,2013-11-13 13:56:00,
2013-11-13 06:01:00,46.3,37.1,30.26,NNW,338,0.0,0.0,70,0.00,,,0.00,WUHU216HW,2013-11-13 14:01:00,
2013-11-13 06:06:00,46.1,37.3,30.27,NNW,338,0.0,0.0,71,0.00,,,0.00,WUHU216HW,2013-11-13 14:06:00,
2013-11-13 06:11:00,46.1,37.3,30.26,NNW,338,0.0,0.0,71,0.00,,,0.00,WUHU216HW,2013-11-13 14:11:00,
2013-11-13 06:16:00,46.1,37.3,30.26,NE,45,0.4,0.9,71,0.00,,,0.00,WUHU216HW,2013-11-13 14:16:00,
2013-11-13 06:21:00,46.1,37.6,30.26,NNE,23,0.0,0.9,72,0.00,,,0.00,WUHU216HW,2013-11-13 14:21:00,
2013-11-13 06:26:00,46.1,37.6,30.26,NNE,23,0.0,0.4,72,0.00,,,0.00,WUHU216HW,2013-11-13 14:26:00,
2013-11-13 06:31:00,45.9,37.5,30.26,NNE,23,0.0,0.4,72,0.00,,,0.00,WUHU216HW,2013-11-13 14:31:00,
2013-11-13 06:36:00,45.9,37.5,30.26,NNE,23,0.0,0.0,72,0.00,,,0.00,WUHU216HW,2013-11-13 14:36:00,
2013-11-13 06:41:00,45.9,37.5,30.27,NNE,23,0.0,0.0,72,0.00,,,0.00,WUHU216HW,2013-11-13 14:41:00,
2013-11-13 06:46:00,45.9,37.5,30.27,NNE,23,0.0,0.0,72,0.00,,,0.00,WUHU216HW,2013-11-13 14:46:00,
2013-11-13 06:51:00,45.9,37.5,30.28,NNE,23,0.0,0.0,72,0.00,,,0.00,WUHU216HW,2013-11-13 14:51:00,
2013-11-13 06:56:00,45.7,37.3,30.27,NNE,23,0.0,0.0,72,0.00,,,0.00,WUHU216HW,2013-11-13 14:56:00,
2013-11-13 07:01:00,45.7,37.3,30.27,NNE,23,0.0,0.0,72,0.00,,,0.00,WUHU216HW,2013-11-13 15:01:00,
2013-11-13 07:06:00,45.7,37.3,30.27,NNE,23,0.0,0.0,72,0.00,,,0.00,WUHU216HW,2013-11-13 15:06:00,
2013-11-13 07:11:00,45.7,37.3,30.28,NNE,23,0.0,0.0,72,0.00,,,0.00,WUHU216HW,2013-11-13 15:11:00,
2013-11-13 07:16:00,45.7,37.5,30.27,NNE,23,0.0,0.0,73,0.00,,,0.00,WUHU216HW,2013-11-13 15:16:00,
2013-11-13 07:21:00,45.9,37.7,30.28,North,0,0.0,0.0,73,0.00,,,0.00,WUHU216HW,2013-11-13 15:21:00,
2013-11-13 07:26:00,46.1,37.9,30.28,NNW,338,0.0,0.0,73,0.00,,,0.00,WUHU216HW,2013-11-13 15:26:00,
2013-11-13 07:31:00,46.3,38.1,30.28,NNW,338,0.0,0.0,73,0.00,,,0.00,WUHU216HW,2013-11-13 15:31:00,
2013-11-13 07:36:00,46.6,38.8,30.28,NW,315,0.7,1.1,74,0.00,,,0.00,WUHU216HW,2013-11-13 15:36:00,
2013-11-13 07:41:00,47.2,39.0,30.29,NW,315,0.7,1.1,73,0.00,,,0.00,WUHU216HW,2013-11-13 15:41:00,
2013-11-13 07:46:00,47.7,39.1,30.29,WNW,293,0.0,1.1,72,0.00,,,0.00,WUHU216HW,2013-11-13 15:46:00,
2013-11-13 07:51:00,48.6,40.0,30.29,NW,315,0.0,0.9,72,0.00,,,0.00,WUHU216HW,2013-11-13 15:51:00,
2013-11-13 07:56:00,49.7,40.3,30.29,NW,315,0.0,0.9,70,0.00,,,0.00,WUHU216HW,2013-11-13 15:56:00,
2013-11-13 08:01:00,50.9,41.2,30.28,NE,45,0.0,0.2,69,0.00,,,0.00,WUHU216HW,2013-11-13 16:01:00,
2013-11-13 08:06:00,51.8,41.7,30.29,NNW,338,0.0,0.0,68,0.00,,,0.00,WUHU216HW,2013-11-13 16:06:00,
2013-11-13 08:11:00,52.6,41.1,30.29,NNW,338,0.0,1.3,65,0.00,,,0.00,WUHU216HW,2013-11-13 16:11:00,
2013-11-13 08:16:00,52.7,40.9,30.30,NNW,338,1.1,1.8,64,0.00,,,0.00,WUHU216HW,2013-11-13 16:16:00,
2013-11-13 08:21:00,53.8,42.3,30.30,NNE,23,0.9,1.8,65,0.00,,,0.00,WUHU216HW,2013-11-13 16:21:00,
2013-11-13 08:26:00,55.1,42.7,30.30,North,0,0.0,1.8,63,0.00,,,0.00,WUHU216HW,2013-11-13 16:26:00,
2013-11-13 08:31:00,56.0,42.8,30.30,NW,315,1.6,1.8,61,0.00,,,0.00,WUHU216HW,2013-11-13 16:31:00,
2013-11-13 08:36:00,56.0,41.9,30.30,NW,315,3.1,3.1,59,0.00,,,0.00,WUHU216HW,2013-11-13 16:36:00,
2013-11-13 08:41:00,56.2,41.0,30.30,NNW,338,1.6,3.6,57,0.00,,,0.00,WUHU216HW,2013-11-13 16:41:00,
2013-11-13 08:46:00,56.5,41.4,30.30,North,0,0.4,4.0,57,0.00,,,0.00,WUHU216HW,2013-11-13 16:46:00,
2013-11-13 08:51:00,57.6,42.0,30.30,NE,45,1.8,4.3,56,0.00,,,0.00,WUHU216HW,2013-11-13 16:51:00,
2013-11-13 08:56:00,58.7,43.5,30.30,NE,45,2.5,4.3,57,0.00,,,0.00,WUHU216HW,2013-11-13 16:56:00,
2013-11-13 09:01:00,59.6,42.8,30.30,NNE,23,4.9,4.9,54,0.00,,,0.00,WUHU216HW,2013-11-13 17:01:00,
2013-11-13 09:06:00,59.8,42.6,30.29,North,0,1.8,5.4,53,0.00,,,0.00,WUHU216HW,2013-11-13 17:06:00,
2013-11-13 09:11:00,60.3,43.6,30.30,NE,45,3.1,5.4,54,0.00,,,0.00,WUHU216HW,2013-11-13 17:11:00,
2013-11-13 09:16:00,60.8,44.1,30.30,NNW,338,0.9,5.4,54,0.00,,,0.00,WUHU216HW,2013-11-13 17:16:00,
2013-11-13 09:21:00,61.6,43.7,30.30,NNE,23,2.0,5.4,52,0.00,,,0.00,WUHU216HW,2013-11-13 17:21:00,
2013-11-13 09:26:00,61.9,44.6,30.29,ENE,68,2.5,4.3,53,0.00,,,0.00,WUHU216HW,2013-11-13 17:26:00,
2013-11-13 09:31:00,62.5,44.6,30.30,NNW,338,1.3,4.9,52,0.00,,,0.00,WUHU216HW,2013-11-13 17:31:00,
2013-11-13 09:36:00,63.0,45.0,30.30,ENE,68,1.1,4.9,52,0.00,,,0.00,WUHU216HW,2013-11-13 17:36:00,
2013-11-13 09:41:00,63.0,44.1,30.29,NNE,23,4.0,4.0,50,0.00,,,0.00,WUHU216HW,2013-11-13 17:41:00,
2013-11-13 09:46:00,63.5,43.4,30.29,North,0,4.5,4.5,48,0.00,,,0.00,WUHU216HW,2013-11-13 17:46:00,
2013-11-13 09:51:00,63.7,43.6,30.29,NNW,338,4.3,4.5,48,0.00,,,0.00,WUHU216HW,2013-11-13 17:51:00,
2013-11-13 09:56:00,63.7,42.4,30.30,NNW,338,2.5,6.0,46,0.00,,,0.00,WUHU216HW,2013-11-13 17:56:00,
2013-11-13 10:01:00,63.7,43.0,30.29,NNE,23,1.8,6.0,47,0.00,,,0.00,WUHU216HW,2013-11-13 18:01:00,
2013-11-13 10:06:00,64.4,42.5,30.29,North,0,5.8,5.8,45,0.00,,,0.00,WUHU216HW,2013-11-13 18:06:00,
2013-11-13 10:11:00,64.4,42.5,30.29,NW,315,5.4,5.8,45,0.00,,,0.00,WUHU216HW,2013-11-13 18:11:00,
2013-11-13 10:16:00,65.0,43.6,30.29,North,0,2.5,7.4,46,0.00,,,0.00,WUHU216HW,2013-11-13 18:16:00,
2013-11-13 10:21:00,65.5,44.1,30.29,North,0,3.6,7.4,46,0.00,,,0.00,WUHU216HW,2013-11-13 18:21:00,
2013-11-13 10:26:00,66.4,44.9,30.28,North,0,3.8,5.4,46,0.00,,,0.00,WUHU216HW,2013-11-13 18:26:00,
2013-11-13 10:31:00,67.0,44.3,30.28,North,0,2.9,5.6,44,0.00,,,0.00,WUHU216HW,2013-11-13 18:31:00,
2013-11-13 10:36:00,67.3,44.6,30.28,NNW,338,3.6,6.3,44,0.00,,,0.00,WUHU216HW,2013-11-13 18:36:00,
2013-11-13 10:41:00,67.3,45.2,30.28,NNW,338,1.1,6.3,45,0.00,,,0.00,WUHU216HW,2013-11-13 18:41:00,
2013-11-13 10:46:00,67.7,44.9,30.28,NW,315,4.7,5.4,44,0.00,,,0.00,WUHU216HW,2013-11-13 18:46:00,
2013-11-13 10:51:00,67.9,44.5,30.28,NNW,338,5.1,8.3,43,0.00,,,0.00,WUHU216HW,2013-11-13 18:51:00,
2013-11-13 10:56:00,68.2,46.0,30.27,NNE,23,4.0,8.3,45,0.00,,,0.00,WUHU216HW,2013-11-13 18:56:00,
2013-11-13 11:01:00,68.9,47.3,30.27,NW,315,4.0,6.0,46,0.00,,,0.00,WUHU216HW,2013-11-13 19:01:00,
2013-11-13 11:06:00,69.5,47.1,30.26,NNE,23,3.4,7.4,45,0.00,,,0.00,WUHU216HW,2013-11-13 19:06:00,
2013-11-13 11:11:00,69.5,46.5,30.26,North,0,1.1,7.4,44,0.00,,,0.00,WUHU216HW,2013-11-13 19:11:00,
2013-11-13 11:16:00,69.8,46.3,30.26,NE,45,8.1,8.1,43,0.00,,,0.00,WUHU216HW,2013-11-13 19:16:00,
2013-11-13 11:21:00,70.0,45.8,30.25,NW,315,4.0,8.3,42,0.00,,,0.00,WUHU216HW,2013-11-13 19:21:00,
2013-11-13 11:26:00,70.4,47.4,30.25,WSW,248,1.8,8.3,44,0.00,,,0.00,WUHU216HW,2013-11-13 19:26:00,
2013-11-13 11:31:00,70.7,47.1,30.24,North,0,4.3,5.8,43,0.00,,,0.00,WUHU216HW,2013-11-13 19:31:00,
2013-11-13 11:36:00,70.9,46.0,30.24,NNW,338,6.7,8.5,41,0.00,,,0.00,WUHU216HW,2013-11-13 19:36:00,
2013-11-13 11:41:00,70.9,46.0,30.23,NW,315,4.7,8.5,41,0.00,,,0.00,WUHU216HW,2013-11-13 19:41:00,
2013-11-13 11:46:00,71.3,47.0,30.23,WNW,293,4.9,7.8,42,0.00,,,0.00,WUHU216HW,2013-11-13 19:46:00,
2013-11-13 11:51:00,71.8,47.4,30.23,North,0,4.0,7.6,42,0.00,,,0.00,WUHU216HW,2013-11-13 19:51:00,
2013-11-13 11:56:00,72.4,46.7,30.22,North,0,4.0,7.6,40,0.00,,,0.00,WUHU216HW,2013-11-13 19:56:00,
2013-11-13 12:01:00,72.7,47.1,30.22,NNW,338,4.3,6.3,40,0.00,,,0.00,WUHU216HW,2013-11-13 20:01:00,
2013-11-13 12:06:00,72.7,47.1,30.22,NNW,338,2.5,6.3,40,0.00,,,0.00,WUHU216HW,2013-11-13 20:06:00,
2013-11-13 12:12:00,73.3,47.5,30.22,NNW,338,7.2,8.1,40,0.00,,,0.00,WUHU216HW,2013-11-13 20:12:00,
2013-11-13 12:17:00,73.4,47.0,30.22,NW,315,6.0,11.2,39,0.00,,,0.00,WUHU216HW,2013-11-13 20:17:00,
2013-11-13 12:22:00,73.6,47.1,30.21,North,0,5.8,11.2,39,0.00,,,0.00,WUHU216HW,2013-11-13 20:22:00,
2013-11-13 12:27:00,73.8,47.3,30.21,North,0,5.4,9.8,39,0.00,,,0.00,WUHU216HW,2013-11-13 20:27:00,
2013-11-13 12:32:00,74.0,46.7,30.21,NNW,338,5.6,9.8,38,0.00,,,0.00,WUHU216HW,2013-11-13 20:32:00,
2013-11-13 12:37:00,74.2,46.8,30.20,NNE,23,5.4,9.8,38,0.00,,,0.00,WUHU216HW,2013-11-13 20:37:00,
2013-11-13 12:42:00,74.5,47.2,30.20,NW,315,7.4,9.8,38,0.00,,,0.00,WUHU216HW,2013-11-13 20:42:00,
2013-11-13 12:47:00,74.7,47.4,30.20,NW,315,10.7,10.7,38,0.00,,,0.00,WUHU216HW,2013-11-13 20:47:00,
2013-11-13 12:52:00,74.9,46.7,30.20,North,0,3.6,10.7,37,0.00,,,0.00,WUHU216HW,2013-11-13 20:52:00,
2013-11-13 12:57:00,75.2,47.1,30.19,NNW,338,8.3,10.7,37,0.00,,,0.00,WUHU216HW,2013-11-13 20:57:00,
2013-11-13 13:02:00,75.6,47.3,30.20,North,0,4.7,8.3,37,0.00,,,0.00,WUHU216HW,2013-11-13 21:02:00,
2013-11-13 13:07:00,76.0,47.7,30.19,NE,45,6.0,8.5,37,0.00,,,0.00,WUHU216HW,2013-11-13 21:07:00,
2013-11-13 13:12:00,76.1,47.1,30.19,NNW,338,6.3,8.5,36,0.00,,,0.00,WUHU216HW,2013-11-13 21:12:00,
2013-11-13 13:17:00,76.1,47.1,30.19,NNW,338,5.1,8.9,36,0.00,,,0.00,WUHU216HW,2013-11-13 21:17:00,
2013-11-13 13:22:00,76.3,46.5,30.19,West,270,4.7,10.7,35,0.00,,,0.00,WUHU216HW,2013-11-13 21:22:00,
2013-11-13 13:27:00,76.3,47.3,30.18,North,0,5.1,10.7,36,0.00,,,0.00,WUHU216HW,2013-11-13 21:27:00,
2013-11-13 13:32:00,76.3,46.5,30.18,NW,315,7.2,10.1,35,0.00,,,0.00,WUHU216HW,2013-11-13 21:32:00,
2013-11-13 13:37:00,76.5,46.7,30.18,NW,315,6.0,8.5,35,0.00,,,0.00,WUHU216HW,2013-11-13 21:37:00,
2013-11-13 13:42:00,76.7,46.8,30.17,North,0,6.0,7.8,35,0.00,,,0.00,WUHU216HW,2013-11-13 21:42:00,
2013-11-13 13:47:00,76.9,47.0,30.17,North,0,7.6,7.6,35,0.00,,,0.00,WUHU216HW,2013-11-13 21:47:00,
2013-11-13 13:52:00,77.0,47.2,30.17,North,0,5.4,8.1,35,0.00,,,0.00,WUHU216HW,2013-11-13 21:52:00,
2013-11-13 13:57:00,77.4,47.4,30.17,North,0,7.6,8.1,35,0.00,,,0.00,WUHU216HW,2013-11-13 21:57:00,
2013-11-13 14:02:00,77.4,47.4,30.16,NNW,338,2.5,7.6,35,0.00,,,0.00,WUHU216HW,2013-11-13 22:02:00,
2013-11-13 14:07:00,77.4,47.4,30.16,WSW,248,3.4,7.6,35,0.00,,,0.00,WUHU216HW,2013-11-13 22:07:00,
2013-11-13 14:12:00,77.8,47.0,30.16,NNW,338,6.7,8.5,34,0.00,,,0.00,WUHU216HW,2013-11-13 22:12:00,
2013-11-13 14:17:00,77.8,47.0,30.16,NW,315,7.6,10.3,34,0.00,,,0.00,WUHU216HW,2013-11-13 22:17:00,
2013-11-13 14:22:00,77.8,47.0,30.16,NNW,338,8.9,10.3,34,0.00,,,0.00,WUHU216HW,2013-11-13 22:22:00,
2013-11-13 14:27:00,77.8,47.0,30.15,NNW,338,7.6,11.4,34,0.00,,,0.00,WUHU216HW,2013-11-13 22:27:00,
2013-11-13 14:32:00,77.8,47.0,30.15,NW,315,11.0,12.1,34,0.00,,,0.00,WUHU216HW,2013-11-13 22:32:00,
2013-11-13 14:37:00,77.9,47.2,30.15,NW,315,6.9,12.1,34,0.00,,,0.00,WUHU216HW,2013-11-13 22:37:00,
2013-11-13 14:42:00,77.9,47.2,30.15,NNW,338,3.8,12.3,34,0.00,,,0.00,WUHU216HW,2013-11-13 22:42:00,
2013-11-13 14:47:00,77.9,47.2,30.15,North,0,3.6,12.3,34,0.00,,,0.00,WUHU216HW,2013-11-13 22:47:00,
2013-11-13 14:52:00,77.8,47.0,30.16,North,0,7.6,12.1,34,0.00,,,0.00,WUHU216HW,2013-11-13 22:52:00,
2013-11-13 14:57:00,77.8,47.0,30.15,NNW,338,7.4,12.1,34,0.00,,,0.00,WUHU216HW,2013-11-13 22:57:00,
2013-11-13 15:02:00,77.6,46.9,30.15,NNW,338,2.9,10.5,34,0.00,,,0.00,WUHU216HW,2013-11-13 23:02:00,
2013-11-13 15:07:00,77.8,47.8,30.15,NW,315,3.1,10.1,35,0.00,,,0.00,WUHU216HW,2013-11-13 23:07:00,
2013-11-13 15:12:00,77.8,47.0,30.15,NNE,23,9.2,9.2,34,0.00,,,0.00,WUHU216HW,2013-11-13 23:12:00,
2013-11-13 15:17:00,77.6,46.9,30.15,NNW,338,6.0,9.2,34,0.00,,,0.00,WUHU216HW,2013-11-13 23:17:00,
2013-11-13 15:22:00,77.4,46.7,30.16,NW,315,6.3,9.8,34,0.00,,,0.00,WUHU216HW,2013-11-13 23:22:00,
2013-11-13 15:27:00,77.6,47.6,30.15,North,0,3.4,9.8,35,0.00,,,0.00,WUHU216HW,2013-11-13 23:27:00,
2013-11-13 15:32:00,77.4,47.4,30.15,NW,315,3.1,7.6,35,0.00,,,0.00,WUHU216HW,2013-11-13 23:32:00,
2013-11-13 15:37:00,77.4,47.4,30.15,NNW,338,5.1,7.6,35,0.00,,,0.00,WUHU216HW,2013-11-13 23:37:00,
2013-11-13 15:42:00,77.4,47.4,30.15,NNE,23,7.2,7.2,35,0.00,,,0.00,WUHU216HW,2013-11-13 23:42:00,
2013-11-13 15:47:00,77.2,47.4,30.15,North,0,1.8,9.2,35,0.00,,,0.00,WUHU216HW,2013-11-13 23:47:00,
2013-11-13 15:52:00,77.0,47.2,30.15,NNW,338,3.4,9.2,35,0.00,,,0.00,WUHU216HW,2013-11-13 23:52:00,
2013-11-13 15:57:00,76.7,47.6,30.15,NNW,338,2.5,5.4,36,0.00,,,0.00,WUHU216HW,2013-11-13 23:57:00,
2013-11-13 16:02:00,76.7,48.3,30.15,WNW,293,2.5,5.4,37,0.00,,,0.00,WUHU216HW,2013-11-14 00:02:00,
2013-11-13 16:07:00,76.3,48.1,30.15,NNW,338,4.5,5.4,37,0.00,,,0.00,WUHU216HW,2013-11-14 00:07:00,
2013-11-13 16:12:00,76.3,48.1,30.15,NNW,338,4.3,5.4,37,0.00,,,0.00,WUHU216HW,2013-11-14 00:12:00,
2013-11-13 16:17:00,76.0,47.7,30.15,NNW,338,1.8,5.4,37,0.00,,,0.00,WUHU216HW,2013-11-14 00:17:00,
2013-11-13 16:22:00,76.0,48.4,30.15,NNW,338,1.1,4.3,38,0.00,,,0.00,WUHU216HW,2013-11-14 00:22:00,
2013-11-13 16:27:00,75.8,48.3,30.15,NNW,338,2.9,3.6,38,0.00,,,0.00,WUHU216HW,2013-11-14 00:27:00,
2013-11-13 16:32:00,75.4,48.0,30.15,NNW,338,0.7,4.7,38,0.00,,,0.00,WUHU216HW,2013-11-14 00:32:00,
2013-11-13 16:37:00,75.1,48.4,30.15,NNW,338,2.2,4.7,39,0.00,,,0.00,WUHU216HW,2013-11-14 00:37:00,
2013-11-13 16:42:00,74.7,48.1,30.15,NNW,338,1.1,2.9,39,0.00,,,0.00,WUHU216HW,2013-11-14 00:42:00,
2013-11-13 16:47:00,74.3,47.8,30.15,NNW,338,1.1,2.7,39,0.00,,,0.00,WUHU216HW,2013-11-14 00:47:00,
2013-11-13 16:52:00,74.2,48.3,30.14,NNW,338,0.4,1.8,40,0.00,,,0.00,WUHU216HW,2013-11-14 00:52:00,
2013-11-13 16:57:00,73.6,47.9,30.15,NNW,338,0.0,1.1,40,0.00,,,0.00,WUHU216HW,2013-11-14 00:57:00,
2013-11-13 17:02:00,73.1,48.0,30.14,NNW,338,0.0,0.9,41,0.00,,,0.00,WUHU216HW,2013-11-14 01:02:00,
2013-11-13 17:07:00,72.4,47.4,30.14,NNW,338,0.0,0.0,41,0.00,,,0.00,WUHU216HW,2013-11-14 01:07:00,
2013-11-13 17:12:00,71.8,47.4,30.14,SSW,203,0.4,0.4,42,0.00,,,0.00,WUHU216HW,2013-11-14 01:12:00,
2013-11-13 17:17:00,71.1,47.3,30.15,SSW,203,0.4,0.7,43,0.00,,,0.00,WUHU216HW,2013-11-14 01:17:00,
2013-11-13 17:22:00,70.6,47.5,30.15,South,180,1.1,1.1,44,0.00,,,0.00,WUHU216HW,2013-11-14 01:22:00,
2013-11-13 17:27:00,69.8,46.8,30.15,South,180,0.4,1.1,44,0.00,,,0.00,WUHU216HW,2013-11-14 01:27:00,
2013-11-13 17:32:00,69.5,47.1,30.14,South,180,0.0,1.1,45,0.00,,,0.00,WUHU216HW,2013-11-14 01:32:00,
2013-11-13 17:37:00,68.9,46.6,30.14,South,180,0.0,0.4,45,0.00,,,0.00,WUHU216HW,2013-11-14 01:37:00,
2013-11-13 17:42:00,68.6,46.3,30.14,South,180,0.0,0.0,45,0.00,,,0.00,WUHU216HW,2013-11-14 01:42:00,
2013-11-13 17:47:00,68.0,45.8,30.14,South,180,0.0,0.0,45,0.00,,,0.00,WUHU216HW,2013-11-14 01:47:00,
2013-11-13 17:52:00,67.5,45.9,30.15,South,180,0.0,0.0,46,0.00,,,0.00,WUHU216HW,2013-11-14 01:52:00,
2013-11-13 17:57:00,67.0,46.0,30.15,SSW,203,0.0,0.7,47,0.00,,,0.00,WUHU216HW,2013-11-14 01:57:00,
2013-11-13 18:02:00,66.4,45.5,30.15,SSW,203,0.7,0.7,47,0.00,,,0.00,WUHU216HW,2013-11-14 02:02:00,
2013-11-13 18:07:00,65.9,45.6,30.15,South,180,0.0,1.8,48,0.00,,,0.00,WUHU216HW,2013-11-14 02:07:00,
2013-11-13 18:12:00,65.3,45.7,30.15,SSW,203,0.0,1.8,49,0.00,,,0.00,WUHU216HW,2013-11-14 02:12:00,
2013-11-13 18:17:00,65.0,45.9,30.14,SE,135,1.8,1.8,50,0.00,,,0.00,WUHU216HW,2013-11-14 02:17:00,
2013-11-13 18:22:00,64.8,45.7,30.14,ESE,113,0.0,2.0,50,0.00,,,0.00,WUHU216HW,2013-11-14 02:22:00,
2013-11-13 18:27:00,64.4,45.4,30.14,ESE,113,0.0,2.0,50,0.00,,,0.00,WUHU216HW,2013-11-14 02:27:00,
2013-11-13 18:32:00,64.1,45.0,30.14,SW,225,0.0,0.0,50,0.00,,,0.00,WUHU216HW,2013-11-14 02:32:00,
2013-11-13 18:37:00,63.9,45.4,30.14,SW,225,0.0,0.0,51,0.00,,,0.00,WUHU216HW,2013-11-14 02:37:00,
2013-11-13 18:42:00,63.7,45.2,30.14,NW,315,0.0,0.0,51,0.00,,,0.00,WUHU216HW,2013-11-14 02:42:00,
2013-11-13 18:47:00,63.2,45.2,30.14,WNW,293,1.6,1.6,52,0.00,,,0.00,WUHU216HW,2013-11-14 02:47:00,
2013-11-13 18:52:00,63.0,45.0,30.14,West,270,0.9,1.8,52,0.00,,,0.00,WUHU216HW,2013-11-14 02:52:00,
2013-11-13 18:57:00,62.8,45.4,30.13,WSW,248,2.2,2.2,53,0.00,,,0.00,WUHU216HW,2013-11-14 02:57:00,
2013-11-13 19:02:00,62.6,45.2,30.13,West,270,0.9,2.2,53,0.00,,,0.00,WUHU216HW,2013-11-14 03:02:00,
2013-11-13 19:07:00,62.3,44.9,30.13,West,270,2.2,2.2,53,0.00,,,0.00,WUHU216HW,2013-11-14 03:07:00,
2013-11-13 19:12:00,62.1,44.7,30.13,West,270,1.6,2.5,53,0.00,,,0.00,WUHU216HW,2013-11-14 03:12:00,
2013-11-13 19:17:00,62.1,44.7,30.13,WSW,248,2.0,2.5,53,0.00,,,0.00,WUHU216HW,2013-11-14 03:17:00,
2013-11-13 19:22:00,61.7,44.4,30.13,West,270,2.5,2.9,53,0.00,,,0.00,WUHU216HW,2013-11-14 03:22:00,
2013-11-13 19:27:00,61.7,44.4,30.13,WSW,248,1.8,2.9,53,0.00,,,0.00,WUHU216HW,2013-11-14 03:27:00,
2013-11-13 19:32:00,61.7,44.4,30.13,West,270,2.2,3.1,53,0.00,,,0.00,WUHU216HW,2013-11-14 03:32:00,
2013-11-13 19:37:00,61.7,43.9,30.12,WSW,248,2.5,3.1,52,0.00,,,0.00,WUHU216HW,2013-11-14 03:37:00,
2013-11-13 19:42:00,61.6,43.7,30.12,SW,225,2.0,3.1,52,0.00,,,0.00,WUHU216HW,2013-11-14 03:42:00,
2013-11-13 19:47:00,61.6,43.7,30.12,WSW,248,1.1,2.5,52,0.00,,,0.00,WUHU216HW,2013-11-14 03:47:00,
2013-11-13 19:52:00,61.2,43.4,30.12,WSW,248,1.3,2.2,52,0.00,,,0.00,WUHU216HW,2013-11-14 03:52:00,
2013-11-13 19:57:00,61.0,43.3,30.12,WSW,248,0.4,1.6,52,0.00,,,0.00,WUHU216HW,2013-11-14 03:57:00,
2013-11-13 20:02:00,60.5,42.8,30.11,SW,225,0.7,1.6,52,0.00,,,0.00,WUHU216HW,2013-11-14 04:02:00,
2013-11-13 20:07:00,60.3,43.1,30.12,WSW,248,0.0,1.1,53,0.00,,,0.00,WUHU216HW,2013-11-14 04:07:00,
2013-11-13 20:12:00,59.9,42.8,30.11,West,270,0.4,1.1,53,0.00,,,0.00,WUHU216HW,2013-11-14 04:12:00,
2013-11-13 20:17:00,59.8,42.6,30.11,WSW,248,1.1,1.6,53,0.00,,,0.00,WUHU216HW,2013-11-14 04:17:00,
2013-11-13 20:22:00,59.6,42.8,30.12,SW,225,1.1,1.8,54,0.00,,,0.00,WUHU216HW,2013-11-14 04:22:00,
2013-11-13 20:27:00,59.4,42.8,30.11,SW,225,1.1,1.8,54,0.00,,,0.00,WUHU216HW,2013-11-14 04:27:00,
2013-11-13 20:32:00,59.4,42.8,30.11,SW,225,0.0,1.3,54,0.00,,,0.00,WUHU216HW,2013-11-14 04:32:00,
2013-11-13 20:37:00,59.0,42.4,30.11,SW,225,0.0,1.3,54,0.00,,,0.00,WUHU216HW,2013-11-14 04:37:00,
2013-11-13 20:42:00,58.9,42.7,30.11,SW,225,0.0,0.0,55,0.00,,,0.00,WUHU216HW,2013-11-14 04:42:00,
2013-11-13 20:47:00,58.5,42.4,30.12,SW,225,0.0,0.0,55,0.00,,,0.00,WUHU216HW,2013-11-14 04:47:00,
2013-11-13 20:52:00,58.3,42.7,30.11,SW,225,0.0,0.0,56,0.00,,,0.00,WUHU216HW,2013-11-14 04:52:00,
2013-11-13 20:57:00,58.0,42.3,30.11,SW,225,0.0,0.0,56,0.00,,,0.00,WUHU216HW,2013-11-14 04:57:00,
2013-11-13 21:01:00,58.0,42.3,30.11,SW,225,0.0,0.0,56,0.00,,,0.00,WUHU216HW,2013-11-14 05:01:00,
2013-11-13 21:06:00,57.6,42.0,30.11,WSW,248,0.0,0.0,56,0.00,,,0.00,WUHU216HW,2013-11-14 05:06:00,
2013-11-13 21:11:00,57.4,41.9,30.12,West,270,1.6,1.6,56,0.00,,,0.00,WUHU216HW,2013-11-14 05:11:00,
2013-11-13 21:16:00,57.2,41.7,30.12,West,270,0.0,1.6,56,0.00,,,0.00,WUHU216HW,2013-11-14 05:16:00,
2013-11-13 21:21:00,57.2,42.1,30.12,West,270,0.0,1.6,57,0.00,,,0.00,WUHU216HW,2013-11-14 05:21:00,
2013-11-13 21:26:00,57.2,42.1,30.11,West,270,0.0,0.0,57,0.00,,,0.00,WUHU216HW,2013-11-14 05:26:00,
2013-11-13 21:31:00,57.1,41.9,30.12,NE,45,0.0,0.0,57,0.00,,,0.00,WUHU216HW,2013-11-14 05:31:00,
2013-11-13 21:36:00,56.9,42.8,30.11,ENE,68,0.9,1.3,59,0.00,,,0.00,WUHU216HW,2013-11-14 05:36:00,
2013-11-13 21:41:00,56.5,42.4,30.11,NE,45,0.9,1.3,59,0.00,,,0.00,WUHU216HW,2013-11-14 05:41:00,
2013-11-13 21:46:00,56.5,42.0,30.11,NE,45,0.0,1.3,58,0.00,,,0.00,WUHU216HW,2013-11-14 05:46:00,
2013-11-13 21:51:00,56.3,42.2,30.11,WNW,293,0.0,0.9,59,0.00,,,0.00,WUHU216HW,2013-11-14 05:51:00,
2013-11-13 21:56:00,56.0,41.9,30.11,West,270,0.0,0.0,59,0.00,,,0.00,WUHU216HW,2013-11-14 05:56:00,
2013-11-13 22:01:00,55.8,42.1,30.11,SW,225,1.1,1.1,60,0.00,,,0.00,WUHU216HW,2013-11-14 06:01:00,
2013-11-13 22:06:00,55.8,41.7,30.11,WSW,248,0.0,1.1,59,0.00,,,0.00,WUHU216HW,2013-11-14 06:06:00,
2013-11-13 22:11:00,55.6,41.9,30.11,West,270,0.0,0.7,60,0.00,,,0.00,WUHU216HW,2013-11-14 06:11:00,
2013-11-13 22:16:00,55.4,41.8,30.11,West,270,0.7,0.9,60,0.00,,,0.00,WUHU216HW,2013-11-14 06:16:00,
2013-11-13 22:21:00,55.3,41.6,30.11,WSW,248,2.0,2.0,60,0.00,,,0.00,WUHU216HW,2013-11-14 06:21:00,
2013-11-13 22:26:00,55.3,41.6,30.12,WSW,248,2.5,3.1,60,0.00,,,0.00,WUHU216HW,2013-11-14 06:26:00,
2013-11-13 22:31:00,55.1,41.0,30.11,West,270,1.8,3.1,59,0.00,,,0.00,WUHU216HW,2013-11-14 06:31:00,
2013-11-13 22:36:00,55.1,41.0,30.11,West,270,2.0,2.7,59,0.00,,,0.00,WUHU216HW,2013-11-14 06:36:00,
2013-11-13 22:41:00,54.9,40.3,30.12,NNW,338,1.3,2.0,58,0.00,,,0.00,WUHU216HW,2013-11-14 06:41:00,
2013-11-13 22:46:00,54.9,40.8,30.12,NNE,23,0.4,2.0,59,0.00,,,0.00,WUHU216HW,2013-11-14 06:46:00,
2013-11-13 22:51:00,54.7,40.7,30.12,NNW,338,0.0,1.8,59,0.00,,,0.00,WUHU216HW,2013-11-14 06:51:00,
2013-11-13 22:56:00,54.5,40.5,30.12,NNW,338,0.0,1.1,59,0.00,,,0.00,WUHU216HW,2013-11-14 06:56:00,
2013-11-13 23:01:00,54.4,40.3,30.12,SW,225,2.0,2.2,59,0.00,,,0.00,WUHU216HW,2013-11-14 07:01:00,
2013-11-13 23:06:00,54.2,40.1,30.12,WSW,248,2.7,3.4,59,0.00,,,0.00,WUHU216HW,2013-11-14 07:06:00,
2013-11-13 23:11:00,54.2,40.1,30.12,North,0,0.0,3.4,59,0.00,,,0.00,WUHU216HW,2013-11-14 07:11:00,
2013-11-13 23:16:00,54.2,40.6,30.12,NW,315,2.0,3.4,60,0.00,,,0.00,WUHU216HW,2013-11-14 07:16:00,
2013-11-13 23:21:00,54.2,40.6,30.12,NW,315,2.9,3.8,60,0.00,,,0.00,WUHU216HW,2013-11-14 07:21:00,
2013-11-13 23:26:00,54.5,41.3,30.12,NW,315,2.7,3.8,61,0.00,,,0.00,WUHU216HW,2013-11-14 07:26:00,
2013-11-13 23:31:00,55.1,41.9,30.12,NW,315,3.1,4.5,61,0.00,,,0.00,WUHU216HW,2013-11-14 07:31:00,
2013-11-13 23:36:00,55.8,42.6,30.12,NNW,338,2.5,4.5,61,0.00,,,0.00,WUHU216HW,2013-11-14 07:36:00,
2013-11-13 23:41:00,56.2,42.9,30.13,WNW,293,3.4,3.6,61,0.00,,,0.00,WUHU216HW,2013-11-14 07:41:00,
2013-11-13 23:46:00,56.3,43.0,30.12,NNW,338,1.8,4.0,61,0.00,,,0.00,WUHU216HW,2013-11-14 07:46:00,
2013-11-13 23:51:00,56.7,43.4,30.12,NW,315,2.7,4.0,61,0.00,,,0.00,WUHU216HW,2013-11-14 07:51:00,
2013-11-13 23:56:00,56.9,43.2,30.12,NW,315,2.7,4.0,60,0.00,,,0.00,WUHU216HW,2013-11-14 07:56:00,